Torna al catalogo

BREEZE-M DEB

LostHEO
NORAD 34254·DEBRIS·🇷🇺 Russia

Lanciato Feb 28, 2006 da Baikonur Cosmodrome

Loading…

Prossimi Passaggi (prossime 24 ore)

TLE

ObsoletoSource: Space-Track

Epoca: Feb 19, 2024, 03:45 UTC

1 34254U 06006BV  24050.15649166  .00015458  00000-0  84573-2 0  9991
2 34254  51.6060 278.4899 4251520 218.0093 102.7519  6.74354802338577

Traccia BREEZE-M DEB in tempo reale con AllMySat

Download on the App Store